星链-34610 (STARLINK-34610)

导读

STARLINK-34610是美国SpaceX公司于2025年7月30日发射的星链低轨通信卫星,属于全球规模最大的卫星互联网星座成员。卫星采用平板设计,重约227kg,搭载Ku/Ka波段通信载荷与氪工质霍尔推进器,具备自主避撞能力,将为全球偏远地区提供高速低延迟宽带互联网服务,退役后可主动离轨并在大气层焚毁。

Basic Information
目录编号:
65034
目录名称:
STARLINK-34610
国际标识:
2025-161V
轨道中心:
EARTH
卫星名称:
星链-34610
卫星全名:
星链-34610 (STARLINK-34610)
卫星状态:
在轨 (已飞行318 天)
发射日期:
2025-07-30 UTC
国别 :
美国 (US)
星等 :
--
Orbit Information
数据来源 国际轨道数据 AOE轨道数据
星历时间 2026-06-13T14:40:16+0800
12小时前
查看轨道信息
2026-06-09T07:00:00+0800
4天前
查看轨道信息
半长轴 6853.311km 6853.343km
偏心率 0.0000891 0.0001354
轨道倾角 53.157° 53.158°
近地点辐角 68.400° 88.264°
升交点赤经 210.288° 230.354°
平近点角 291.709° 222.943°
近地点 474.563km 474.278km
远地点 475.785km 476.134km
周期 94.104分钟 94.105分钟
每日圈数 15.302139 15.302033
Detailed Information
固有亮度:
5
最大亮度:
2.5
卫星平台:
Starlink V1.0
覆盖范围:
全球
运营商:
太空探索技术公司
运营商所在国:
美国
制造商(研发单位):
太空探索技术公司
制造商所在国:
美国
使用方式:
暂无
Satellite Introduction
Starlink 计划是 SpaceX 推出的全球卫星互联网项目,通过发射低轨道卫星,为全球尤其是偏远地区提供高速、低延迟的互联网服务。自 2019 年起,Starlink 已部署数千颗卫星,旨在缩小全球数字鸿沟,推动互联网普及。该项目还为军事、航空等行业提供通信支持,带来广泛经济效益。
2D Orbit Map
3D Orbit Map
Orbit Altitude Analysis Chart
Orbit Inclination Analysis Chart
Orbit Comprehensive Analysis Chart
View Comprehensive Chart